Vertical_Velocity
-0 -1 -4 -3 -1 -2 -2 -4 -1 -2 1 1 -1 -1 1 -1 0 -3 -0 0 -0 -1 -3 -0 -2 1 2 -0 -0 -0 1 0 1 1 1 1 2 1 -1 3 -3 -1 -0 -4 0 -0 -0
-2 -2 -1 -1 -3 -3 -3 -2 -2 -1 -3 -2 -0 -1 1 -1 -1 2 -0 -0 -1 -1 -1 -2 -1 -0 1 0 3 3 3 1 2 1 3 -2 -4 2 1 3 2 -2 -1 -5 -0 -3 -0
-1 -0 -0 -1 -1 0 -2 -2 -3 -1 -4 -1 -3 1 -2 -3 1 -0 -1 -0 -2 -1 -2 -1 -1 -0 -1 -7 -1 0 0 3 1 3 1 -4 -2 3 2 5 0 1 -1 -3 -4 -3 -1
-1 0 0 -0 1 -2 -1 -1 -3 -3 -2 -1 0 -2 -1 -2 -2 -3 0 0 -2 0 -1 -1 -2 1 -0 -4 -1 2 1 2 6 3 -1 -2 4 -1 3 1 1 3 0 -4 1 1 -4
1 -1 -1 -1 -0 1 -2 -2 -1 -1 -2 -1 -0 -1 -1 -1 -1 -2 -0 -3 2 -2 -1 -1 2 0 -4 -1 2 -8 5 3 2 7 7 8 -1 1 1 1 -0 1 -3 -1 2 -0 1
-1 -0 -0 -1 0 0 0 -0 -1 -1 -0 -4 -3 -1 -2 -3 -3 1 -1 -4 -1 1 -0 -1 4 -6 1 1 1 -2 -3 0 0 3 2 1 2 2 5 1 -1 1 2 -2 4 -4 1
-0 -1 -1 -0 -0 -1 -0 -1 -1 1 -1 -2 -3 -3 -2 -1 -0 -1 2 -1 -3 -3 -0 -4 2 -2 0 -1 2 -1 -1 -1 -4 0 3 -2 -1 5 2 0 -1 -0 -1 -1 -7 -3 0
0 -0 -1 -1 -0 -1 -1 -0 -2 -1 -1 -1 0 1 -3 -4 -4 -1 1 3 -1 -1 -4 -2 2 -2 3 1 -0 -2 -2 1 -0 0 -0 -5 3 -0 2 1 -0 -0 2 -1 1 2 -1
-1 1 1 -1 -0 -1 -0 -1 -1 -2 -2 -2 -1 1 1 -3 -8 7 0 -4 -1 -2 -4 -7 -2 4 -5 1 -1 0 -0 -3 2 -1 -3 -3 9 -4 1 3 -3 3 -2 0 1 -5 -4
-0 -1 -0 1 1 1 -2 -0 -2 -1 -2 -3 -2 2 -0 -0 0 6 -14 -5 -0 2 -6 -2 0 4 -1 1 8 -3 1 -2 -0 4 -0 -2 -0 -4 5 1 -2 -2 2 0 -2 -1 -1
1 -1 0 -1 1 0 1 -1 -1 -1 -1 -2 -2 -1 -0 2 8 -2 -5 -1 -3 -2 -9 -1 -1 2 -2 7 -3 1 0 1 -1 1 -4 2 0 0 1 2 1 6 5 -1 2 8 -8
1 -1 -1 0 1 -2 0 -1 0 -0 -1 -2 1 -4 -1 -1 11 -10 -2 1 -2 -9 -3 -2 1 1 -4 8 -1 -3 1 2 -1 -2 0 1 -5 -0 -2 2 5 -2 4 1 1 1 -0
-1 -3 1 -0 0 2 -1 1 -2 0 -1 0 -1 -1 -0 0 5 -4 2 -0 -3 -14 3 -11 -1 -1 -1 4 -4 -1 3 4 2 -1 -1 4 -1 0 -0 1 1 -2 4 -3 -6 -2 -1
-0 -3 -3 -1 -1 -1 1 -1 -0 -1 2 -0 1 0 -1 1 -3 2 -0 -2 -7 10 5 -3 -7 1 -1 -2 5 -1 4 -3 3 0 -1 -3 -3 5 7 -1 -1 -3 -1 2 -3 -2 -6
-3 -3 -1 2 -1 -1 2 1 1 -3 1 -2 0 2 6 -2 0 0 -2 -13 9 15 5 -6 -1 -1 6 1 -1 -4 3 -2 -1 0 -0 -1 -3 3 4 0 0 6 -4 3 -3 -2 -4
-2 1 -0 -0 2 1 0 3 1 -2 3 -1 1 2 3 -3 0 1 -8 2 -0 13 -2 -3 0 0 4 7 -6 -8 -3 4 10 0 -2 1 -2 1 -2 -0 1 3 2 -0 -2 -2 -4
2 -5 -5 -1 -2 -1 -3 -1 -1 -1 4 1 1 -2 7 -4 -2 -3 -9 -2 8 23 -12 -3 -3 -2 -1 -4 -1 -3 1 1 -0 3 -3 1 -1 -2 -2 4 5 -1 -1 -1 1 -4 0
3 -1 1 0 1 0 -7 -0 -1 -1 -1 -6 -2 -0 2 -0 -2 -5 -2 9 8 21 -18 -0 5 6 2 -1 -1 -3 -0 4 -5 -2 -4 6 -2 -4 3 -2 1 2 2 -4 -2 2 -1
1 -1 -1 -2 -1 1 1 1 -1 -2 -3 -6 -0 -6 -2 0 -6 -5 -5 -1 -3 17 5 -1 1 -1 2 2 5 -8 2 1 -1 -2 -4 8 -4 -1 -2 0 5 1 2 -1 -0 -4 2
-0 -0 -1 -1 -2 -2 1 -3 -2 1 0 0 -3 -3 -8 4 -0 -5 -2 -0 -8 7 14 -5 6 5 5 6 0 -13 -6 -4 0 3 -0 -3 0 -3 -0 1 -6 -2 -1 1 -0 -5 6
0 -1 0 -1 -4 -3 -1 -2 -4 -0 -3 -2 -1 -10 -1 -6 -5 4 -2 13 6 9 3 -7 -0 5 2 3 -6 -2 0 -3 3 -0 0 -2 -4 -0 -0 -2 -3 -1 1 0 -1 1 -3
-0 -2 -3 -3 -4 -4 -4 -6 -7 1 -3 -5 -3 -6 8 2 1 -1 -6 8 2 5 -2 8 -9 7 -5 -2 -0 6 2 -0 -5 -4 -4 5 -2 -0 0 -4 -3 -3 -1 -0 2 -1 -2
1 -2 -3 -3 -3 -4 -4 -1 -4 0 -1 -1 5 -3 3 2 -0 2 -9 -2 6 -6 3 8 -19 -4 -3 9 -3 1 2 1 -5 0 -1 6 -2 0 2 -2 -6 -10 9 1 -1 2 1
-0 -2 -2 -2 -4 -2 -2 -1 -2 -1 2 1 -2 -2 4 6 4 -4 -1 -5 9 -6 7 -1 4 -5 9 -3 6 6 0 0 -5 2 1 4 1 -0 -3 -1 -22 14 3 -3 -1 1 1
0 -1 -1 -1 -2 -2 -4 -3 -1 -1 -0 -3 -2 -1 -1 0 2 -3 -3 -3 -1 -2 -1 8 6 -10 11 7 1 4 3 -2 -6 -5 1 9 2 -1 -10 0 -2 1 6 2 -2 2 -6
-0 0 -0 -2 -0 -1 2 -0 0 1 3 -2 0 -0 2 1 -3 -3 -3 -10 -8 -0 -3 -5 2 3 12 -4 1 -7 2 9 5 3 0 -6 1 -2 1 -12 -9 14 6 -3 -3 -1 -2
3 0 1 -1 -1 -2 -3 -5 -3 -1 -1 -4 -6 -4 -5 -2 -5 2 -3 -1 -1 -8 -0 2 -1 4 5 4 -2 -0 -4 11 -10 2 0 -10 -6 -8 3 -13 -6 5 9 -6 -6 12 -3
1 1 1 0 1 -0 -1 -2 -1 -0 -0 -3 -7 0 -4 -2 -1 -1 1 1 -1 1 5 3 7 -2 9 3 -1 44 -9 5 0 10 6 2 1 6 -0 -9 -13 11 -6 -3 4 2 -1
0 1 -3 1 -2 -2 -1 -2 -2 -1 2 -2 -9 -4 -5 2 6 -4 3 5 5 2 3 2 -6 13 1 8 -1 13 25 6 6 -20 13 -13 -21 4 2 19 15 -16 8 -1 3 0 -0
Height
5831 5833 5834 5835 5836 5837 5838 5838 5839 5840 5841 5842 5843 5844 5845 5846 5848 5850 5851 5852 5851 5852 5852 5854 5856 5858 5861 5863 5866 5868 5870 5870 5871 5871 5871 5871 5872 5873 5873 5874 5874 5874 5872 5869 5871 5870 5871
5825 5826 5828 5829 5830 5832 5833 5834 5835 5836 5837 5838 5838 5839 5840 5841 5843 5845 5846 5848 5849 5849 5849 5849 5851 5853 5855 5858 5861 5863 5865 5866 5867 5867 5868 5867 5867 5868 5870 5871 5871 5872 5871 5869 5869 5866 5869
5818 5819 5821 5823 5824 5826 5828 5829 5830 5831 5832 5832 5834 5834 5836 5836 5838 5840 5841 5843 5846 5847 5847 5847 5847 5848 5851 5851 5855 5858 5858 5861 5863 5864 5863 5862 5864 5866 5867 5868 5866 5867 5869 5867 5865 5864 5865
5809 5811 5813 5815 5817 5819 5821 5822 5823 5825 5826 5827 5829 5830 5831 5832 5833 5835 5836 5838 5840 5842 5843 5844 5844 5845 5845 5845 5850 5852 5853 5855 5857 5857 5858 5860 5860 5862 5863 5863 5863 5864 5865 5865 5865 5863 5862
5799 5801 5804 5807 5809 5811 5813 5815 5817 5818 5820 5821 5822 5824 5826 5827 5828 5830 5832 5832 5835 5836 5838 5840 5841 5842 5842 5843 5846 5846 5849 5851 5851 5853 5853 5856 5856 5856 5858 5859 5860 5860 5860 5861 5862 5861 5861
5789 5791 5794 5796 5799 5802 5804 5806 5809 5811 5812 5815 5817 5818 5820 5821 5823 5825 5826 5828 5829 5831 5833 5834 5837 5839 5839 5840 5841 5841 5843 5846 5847 5848 5849 5850 5850 5851 5854 5855 5854 5854 5857 5857 5858 5858 5858
5778 5780 5783 5786 5788 5791 5794 5797 5799 5802 5804 5806 5809 5812 5814 5815 5817 5819 5821 5823 5825 5827 5828 5829 5833 5833 5834 5835 5836 5836 5837 5841 5842 5844 5845 5844 5846 5849 5848 5849 5849 5849 5851 5849 5851 5852 5854
5766 5768 5771 5775 5778 5781 5783 5787 5790 5792 5795 5798 5801 5803 5807 5809 5811 5813 5815 5816 5817 5819 5822 5824 5826 5828 5830 5831 5831 5831 5833 5836 5838 5840 5840 5841 5844 5844 5844 5845 5846 5846 5847 5845 5846 5849 5851
5752 5756 5759 5762 5766 5769 5772 5775 5779 5782 5786 5788 5792 5795 5797 5801 5804 5806 5808 5810 5812 5813 5815 5817 5820 5822 5823 5826 5825 5828 5829 5829 5832 5836 5836 5836 5841 5838 5842 5842 5842 5842 5843 5843 5843 5843 5848
5739 5743 5746 5749 5752 5756 5759 5763 5767 5770 5775 5779 5782 5785 5788 5792 5797 5797 5799 5802 5804 5806 5808 5812 5813 5816 5816 5820 5822 5822 5824 5826 5828 5832 5831 5832 5834 5834 5837 5838 5838 5840 5841 5841 5838 5838 5846
5724 5728 5733 5737 5740 5743 5747 5750 5754 5759 5763 5768 5772 5775 5778 5782 5786 5788 5792 5795 5798 5800 5800 5805 5806 5809 5811 5815 5816 5816 5819 5819 5822 5824 5826 5828 5828 5831 5833 5834 5835 5838 5838 5839 5837 5837 5837
5710 5713 5718 5722 5727 5731 5734 5738 5742 5747 5751 5755 5760 5765 5768 5772 5775 5777 5783 5786 5790 5793 5793 5795 5799 5801 5804 5808 5809 5810 5814 5815 5817 5818 5820 5822 5823 5825 5828 5830 5831 5832 5833 5833 5834 5833 5834
5697 5700 5704 5709 5713 5717 5722 5726 5730 5735 5739 5743 5748 5753 5757 5761 5765 5768 5773 5778 5782 5783 5787 5789 5790 5794 5797 5801 5802 5805 5807 5810 5812 5813 5815 5817 5818 5820 5821 5823 5824 5826 5828 5827 5828 5828 5829
5682 5686 5690 5695 5699 5704 5709 5714 5718 5722 5728 5731 5736 5741 5746 5749 5754 5758 5763 5768 5771 5776 5779 5781 5783 5787 5791 5793 5796 5797 5801 5803 5805 5807 5809 5810 5813 5816 5817 5817 5819 5820 5821 5823 5823 5823 5824
5667 5671 5675 5680 5684 5690 5694 5700 5705 5710 5716 5720 5724 5729 5734 5737 5743 5747 5753 5757 5763 5766 5769 5771 5774 5778 5784 5786 5790 5789 5794 5797 5799 5801 5803 5805 5806 5809 5811 5811 5814 5816 5817 5817 5816 5818 5818
5655 5659 5662 5666 5671 5676 5681 5685 5690 5696 5703 5707 5713 5717 5721 5727 5732 5736 5742 5747 5752 5755 5757 5763 5765 5768 5774 5779 5780 5783 5785 5791 5795 5795 5796 5800 5799 5802 5804 5806 5808 5809 5811 5811 5813 5812 5811
5643 5647 5651 5655 5659 5663 5668 5674 5679 5684 5690 5695 5701 5705 5710 5715 5721 5725 5731 5736 5743 5749 5747 5753 5756 5758 5763 5769 5773 5775 5779 5783 5786 5789 5790 5793 5793 5796 5798 5801 5804 5804 5803 5806 5808 5807 5807
5630 5635 5640 5644 5648 5652 5657 5661 5667 5674 5679 5684 5688 5693 5699 5704 5710 5715 5720 5726 5732 5736 5737 5741 5747 5750 5755 5760 5764 5767 5771 5776 5778 5781 5783 5788 5788 5788 5793 5794 5797 5799 5798 5799 5801 5803 5801
5616 5622 5626 5631 5636 5640 5644 5650 5655 5660 5664 5670 5674 5679 5686 5691 5695 5702 5707 5713 5718 5724 5727 5729 5735 5740 5745 5750 5755 5757 5762 5766 5771 5775 5776 5782 5781 5783 5785 5791 5793 5793 5793 5794 5795 5796 5795
5602 5607 5612 5617 5621 5625 5630 5635 5640 5645 5649 5654 5660 5664 5670 5675 5680 5686 5692 5699 5704 5711 5716 5717 5723 5730 5737 5740 5744 5747 5753 5757 5762 5768 5770 5773 5775 5778 5780 5785 5784 5786 5788 5789 5789 5790 5792
5588 5593 5597 5601 5606 5611 5614 5619 5625 5630 5633 5637 5642 5647 5655 5660 5664 5671 5676 5685 5689 5695 5700 5704 5710 5718 5726 5732 5735 5741 5744 5748 5753 5758 5763 5766 5769 5773 5776 5775 5778 5780 5782 5782 5785 5785 5784
5572 5577 5582 5587 5592 5595 5599 5603 5608 5613 5615 5620 5625 5632 5639 5644 5648 5653 5658 5665 5671 5677 5686 5694 5699 5705 5713 5720 5726 5732 5734 5738 5744 5748 5754 5758 5763 5766 5769 5770 5771 5775 5777 5777 5778 5778 5778
5558 5563 5568 5572 5576 5580 5583 5586 5590 5596 5600 5603 5611 5617 5624 5630 5634 5639 5641 5648 5654 5660 5670 5678 5685 5691 5700 5709 5714 5719 5723 5726 5734 5739 5744 5751 5754 5759 5763 5765 5765 5764 5773 5773 5773 5774 5773
5547 5552 5557 5561 5564 5566 5569 5574 5578 5583 5588 5593 5598 5605 5611 5616 5620 5625 5629 5634 5642 5648 5657 5662 5671 5678 5686 5693 5704 5709 5714 5718 5722 5728 5734 5743 5746 5750 5754 5758 5755 5764 5763 5766 5769 5770 5767
5537 5543 5547 5551 5554 5557 5560 5564 5568 5572 5577 5581 5588 5594 5599 5605 5611 5615 5618 5624 5629 5636 5642 5649 5654 5665 5674 5680 5686 5694 5702 5706 5713 5719 5724 5733 5737 5741 5745 5751 5752 5756 5761 5760 5759 5761 5760
5528 5534 5538 5542 5545 5549 5553 5556 5561 5565 5569 5573 5578 5583 5589 5596 5600 5603 5607 5612 5618 5624 5628 5635 5642 5651 5661 5667 5674 5679 5686 5695 5701 5706 5712 5719 5727 5734 5735 5739 5742 5753 5753 5754 5754 5756 5754
5520 5525 5530 5534 5538 5541 5544 5547 5552 5556 5559 5563 5568 5573 5577 5582 5584 5590 5594 5598 5605 5610 5616 5622 5630 5638 5648 5655 5663 5670 5675 5683 5690 5696 5701 5707 5715 5722 5726 5731 5735 5746 5748 5748 5748 5755 5748
5511 5517 5523 5527 5530 5532 5536 5539 5542 5546 5550 5553 5556 5560 5563 5568 5570 5574 5579 5583 5589 5595 5602 5611 5620 5625 5633 5642 5654 5660 5662 5668 5676 5686 5693 5697 5705 5712 5718 5723 5726 5741 5740 5742 5746 5742 5744
5503 5510 5516 5520 5523 5527 5530 5533 5536 5540 5544 5546 5547 5550 5553 5557 5561 5562 5567 5572 5577 5582 5591 5598 5605 5611 5620 5628 5637 5639 5648 5656 5666 5671 5681 5687 5696 5702 5708 5715 5719 5731 5731 5732 5735 5738 5740